Weather History for KLVK - August, 2013

Change the Weather History Date:

Saturday, August 24, 2013

  Actual Average Record
Temperature  
Mean Temperature 71 °F 72 °F  
Max Temperature 84 °F 87 °F 107 °F (1932)
Min Temperature 58 °F 57 °F 43 °F (1964)
Degree Days  
Heating Degree Days 0 0  
Month to date heating degree days 0 0  
Since 1 June heating degree days 5 36  
Since 1 July heating degree days 0 4  
Cooling Degree Days 6 7  
Month to date cooling degree days 184 176  
Year to date cooling degree days 752 570  
Since 1 June cooling degree days 651 517  
Growing Degree Days 20 (Base 50)    
Moisture  
Dew Point 55 °F    
Average Humidity 59    
Maximum Humidity 84    
Minimum Humidity 34    
Precipitation  
Precipitation 0.00 in 0.01 in 0.00 in (2015)
Month to date precipitation 0.00 0.01  
Year to date precipitation 2.12 9.91  
Since 1 July precipitation 0.00 0.01  
Sea Level Pressure  
Sea Level Pressure 29.87 in    
Wind  
Wind Speed 9 mph (West)    
Max Wind Speed 20 mph    
Max Gust Speed 31 mph    
Visibility 10 miles    
Events      
T = Trace of Precipitation, MM = Missing Value Source: NWS Daily Summary

Daily Weather History Graph

Daily Weather History Graph

Search for Another Location

Airport or City:

Trip Planner

Search our weather history database for the weather conditions in past years. The results will help you decide how hot, cold, wet, or windy it might be!

Date:

Astronomy

Aug. 24, 2013 Rise Set
Actual Time 6:30 AM PDT 7:47 PM PDT
Civil Twilight 6:03 AM PDT 8:14 PM PDT
Nautical Twilight 5:31 AM PDT 8:47 PM PDT
Astronomical Twilight 4:56 AM PDT 9:21 PM PDT
Moon 9:51 PM PDT (8/24) 10:30 AM PDT (8/24)
Length of Visible Light 14h 11m
Length of Day
13h 16m
Waning Gibbous, 83% of the Moon is Illuminated
Aug 24
Waning Gibbous
Aug 28
Last Quarter
Sep 5
New
Sep 12
First Quarter
Sep 19
Full

Hourly Weather History & Observations

Time (PDT) Temp. Heat Index Dew Point Humidity Pressure Visibility Wind Dir Wind Speed Gust Speed Precip Events Conditions
12:53 AM 60.1 °F - 54.0 °F 80% 29.84 in 10.0 mi WNW 8.1 mph - N/A   Clear
1:53 AM 59.0 °F - 54.0 °F 83% 29.85 in 10.0 mi WNW 4.6 mph - N/A   Clear
2:53 AM 60.1 °F - 54.0 °F 80% 29.85 in 10.0 mi NW 4.6 mph - N/A   Clear
3:53 AM 60.1 °F - 54.0 °F 80% 29.85 in 10.0 mi NW 5.8 mph - N/A   Clear
4:53 AM 59.0 °F - 54.0 °F 83% 29.85 in 10.0 mi WNW 5.8 mph - N/A   Clear
5:53 AM 57.9 °F - 53.1 °F 84% 29.85 in 10.0 mi WNW 4.6 mph - N/A   Clear
6:53 AM 59.0 °F - 54.0 °F 83% 29.86 in 10.0 mi WNW 6.9 mph - N/A   Partly Cloudy
7:53 AM 63.0 °F - 55.0 °F 75% 29.87 in 10.0 mi WNW 8.1 mph - N/A   Partly Cloudy
8:53 AM 66.9 °F - 55.0 °F 66% 29.88 in 10.0 mi Variable 5.8 mph - N/A   Partly Cloudy
9:53 AM 70.0 °F - 55.0 °F 59% 29.88 in 10.0 mi WSW 4.6 mph - N/A   Clear
10:53 AM 75.9 °F - 53.1 °F 45% 29.87 in 10.0 mi West 8.1 mph - N/A   Clear
11:53 AM 81.0 °F 80.4 °F 53.1 °F 38% 29.87 in 10.0 mi WNW 10.4 mph - N/A   Clear
12:53 PM 82.9 °F 81.8 °F 53.1 °F 36% 29.86 in 10.0 mi West 11.5 mph - N/A   Clear
1:53 PM 84.0 °F 82.6 °F 54.0 °F 35% 29.86 in 10.0 mi West 13.8 mph 20.7 mph N/A   Clear
2:53 PM 82.9 °F 82.0 °F 55.0 °F 38% 29.85 in 10.0 mi West 15.0 mph - N/A   Clear
3:53 PM 81.0 °F 80.8 °F 55.9 °F 42% 29.84 in 10.0 mi WNW 12.7 mph - N/A   Clear
4:53 PM 80.1 °F 80.1 °F 55.0 °F 42% 29.84 in 10.0 mi West 16.1 mph - N/A   Clear
5:53 PM 75.9 °F - 55.9 °F 50% 29.85 in 10.0 mi West 17.3 mph - N/A   Clear
6:53 PM 73.9 °F - 57.0 °F 55% 29.84 in 10.0 mi West 13.8 mph - N/A   Clear
7:53 PM 69.1 °F - 57.0 °F 65% 29.86 in 10.0 mi West 9.2 mph - N/A   Clear
8:53 PM 66.0 °F - 57.0 °F 73% 29.87 in 10.0 mi WNW 9.2 mph - N/A   Clear
9:53 PM 64.9 °F - 57.9 °F 78% 29.89 in 10.0 mi West 11.5 mph - N/A   Clear
10:43 PM 64.4 °F - 57.2 °F 77% 29.90 in 10.0 mi West 9.2 mph - N/A   Mostly Cloudy
10:53 PM 64.0 °F - 57.9 °F 80% 29.90 in 10.0 mi West 3.5 mph - N/A   Mostly Cloudy
11:18 PM 64.4 °F - 57.2 °F 77% 29.91 in 10.0 mi West 4.6 mph - N/A   Scattered Clouds
11:26 PM 64.4 °F - 59.0 °F 83% 29.91 in 10.0 mi Calm Calm - N/A   Mostly Cloudy
11:53 PM 64.0 °F - 59.0 °F 84% 29.90 in 10.0 mi South 5.8 mph - N/A   Overcast